| time (UTC) | temp F | wind direction | speed MPH | gust MPH | rain 1hr in | rain 24hr in | rain mn in | humidity % | barometer mb |
| 20260903061535 | 51 | 103 | 0.0 | 0.0 | 0.00 | 0.00 | 0.00 | 49 | 1014.1 |
| 20260903060032 | 51 | 55 | 0.0 | 0.0 | 0.00 | 0.00 | 0.00 | 47 | 1013.9 |
| 20260903054533 | 51 | 345 | 0.0 | 0.0 | 0.00 | 0.00 | 0.00 | 45 | 1013.9 |
| 20260903053032 | 52 | 345 | 0.0 | 0.0 | 0.00 | 0.00 | 0.00 | 51 | 1014.0 |
| 20260903051531 | 53 | 345 | 0.0 | 0.0 | 0.00 | 0.00 | 0.00 | 56 | 1014.1 |
| 20260903050030 | 54 | 345 | 0.0 | 0.0 | 0.00 | 0.00 | 0.00 | 61 | 1014.0 |
| 20260903044530 | 54 | 345 | 0.0 | 0.0 | 0.00 | 0.00 | 0.00 | 62 | 1014.1 |
| 20260903043029 | 55 | 345 | 0.0 | 0.0 | 0.00 | 0.00 | 0.00 | 61 | 1014.1 |
| 20260903041529 | 56 | 345 | 0.0 | 0.0 | 0.00 | 0.00 | 0.00 | 60 | 1014.0 |
| 20260903040029 | 57 | 345 | 0.0 | 0.0 | 0.00 | 0.00 | 0.00 | 55 | 1013.8 |
| 20260903034526 | 59 | 345 | 0.0 | 0.0 | 0.00 | 0.00 | 0.00 | 54 | 1013.6 |
| 20260903033026 | 61 | 345 | 0.0 | 0.0 | 0.00 | 0.00 | 0.00 | 54 | 1013.6 |
| 20260903031525 | 63 | 345 | 0.0 | 0.0 | 0.00 | 0.00 | 0.00 | 53 | 1013.4 |
| 20260903030029 | 64 | 345 | 0.0 | 0.0 | 0.00 | 0.00 | 0.00 | 48 | 1013.3 |
| 20260903024525 | 66 | 345 | 0.0 | 0.0 | 0.00 | 0.00 | 0.00 | 48 | 1013.3 |
| 20260903023024 | 67 | 345 | 0.0 | 0.0 | 0.00 | 0.00 | 0.00 | 47 | 1013.2 |
| 20260903021523 | 69 | 308 | 0.0 | 0.0 | 0.00 | 0.00 | 0.00 | 42 | 1013.1 |
| 20260903020035 | 70 | 309 | 0.0 | 0.0 | 0.00 | 0.00 | 0.00 | 39 | 1013.2 |
| 20260903014524 | 70 | 306 | 0.0 | 0.0 | 0.00 | 0.00 | 0.00 | 35 | 1013.2 |
| 20260903013020 | 71 | 300 | 0.0 | 0.0 | 0.00 | 0.00 | 0.00 | 35 | 1013.3 |
| 20260903011520 | 72 | 272 | 0.0 | 0.0 | 0.00 | 0.00 | 0.00 | 34 | 1013.3 |
| 20260903010018 | 73 | 322 | 0.0 | 6.0 | 0.00 | 0.00 | 0.00 | 33 | 1013.4 |
| 20260903004517 | 74 | 294 | 0.0 | 9.0 | 0.00 | 0.00 | 0.00 | 33 | 1013.4 |
| 20260903003016 | 75 | 339 | 0.0 | 10.0 | 0.00 | 0.00 | 0.00 | 32 | 1013.4 |
| 20260903001514 | 76 | 304 | 3.0 | 11.0 | 0.00 | 0.00 | 0.00 | 29 | 1013.4 |
| 20260903000013 | 77 | 327 | 1.0 | 10.0 | 0.00 | 0.00 | 0.00 | 27 | 1013.4 |
| 20260902234512 | 77 | 208 | 0.0 | 14.0 | 0.00 | 0.00 | 0.00 | 22 | 1013.4 |
| 20260902233012 | 78 | 305 | 0.0 | 12.0 | 0.00 | 0.00 | 0.00 | 22 | 1013.6 |
| 20260902231508 | 78 | 212 | 1.0 | 12.0 | 0.00 | 0.00 | 0.00 | 21 | 1013.6 |
| 20260902230007 | 79 | 319 | 4.0 | 15.0 | 0.00 | 0.00 | 0.00 | 23 | 1013.7 |
| 20260902224506 | 79 | 264 | 0.0 | 16.0 | 0.00 | 0.00 | 0.00 | 23 | 1013.7 |
| 20260902223003 | 80 | 317 | 1.0 | 13.0 | 0.00 | 0.00 | 0.00 | 20 | 1013.9 |
| 20260902221502 | 81 | 294 | 2.0 | 11.0 | 0.00 | 0.00 | 0.00 | 21 | 1014.2 |
| 20260902214558 | 82 | 324 | 1.0 | 14.0 | 0.00 | 0.00 | 0.00 | 18 | 1014.3 |
| 20260902213056 | 83 | 319 | 4.0 | 15.0 | 0.00 | 0.00 | 0.00 | 15 | 1014.3 |
| 20260902211556 | 85 | 307 | 2.0 | 13.0 | 0.00 | 0.00 | 0.00 | 15 | 1014.3 |
| 20260902210052 | 85 | 319 | 0.0 | 14.0 | 0.00 | 0.00 | 0.00 | 16 | 1014.5 |
| 20260902204630 | 85 | 293 | 0.0 | 5.0 | 0.00 | 0.00 | 0.00 | 17 | 1014.7 |
| 20260902203050 | 85 | 288 | 0.0 | 12.0 | 0.00 | 0.00 | 0.00 | 17 | 1015.0 |
| 20260902201545 | 85 | 295 | 0.0 | 14.0 | 0.00 | 0.00 | 0.00 | 17 | 1015.1 |
| 20260902200044 | 85 | 311 | 1.0 | 14.0 | 0.00 | 0.00 | 0.00 | 16 | 1015.2 |
| 20260902194543 | 84 | 262 | 0.0 | 1.0 | 0.00 | 0.00 | 0.00 | 16 | 1015.2 |
| 20260902193041 | 84 | 302 | 0.0 | 12.0 | 0.00 | 0.00 | 0.00 | 17 | 1015.2 |
| 20260902191541 | 83 | 281 | 1.0 | 11.0 | 0.00 | 0.00 | 0.00 | 16 | 1015.5 |
| 20260902190037 | 83 | 287 | 0.0 | 17.0 | 0.00 | 0.00 | 0.00 | 15 | 1015.6 |
| 20260902184536 | 82 | 317 | 0.0 | 12.0 | 0.00 | 0.00 | 0.00 | 14 | 1015.7 |
| 20260902183051 | 82 | 291 | 0.0 | 12.0 | 0.00 | 0.00 | 0.00 | 14 | 1015.7 |
| 20260902181530 | 81 | 265 | 0.0 | 11.0 | 0.00 | 0.00 | 0.00 | 13 | 1015.8 |
| 20260902180029 | 80 | 292 | 0.0 | 13.0 | 0.00 | 0.00 | 0.00 | 13 | 1015.7 |
| 20260902174528 | 80 | 254 | 0.0 | 11.0 | 0.00 | 0.00 | 0.00 | 14 | 1015.7 |
| 20260902173028 | 80 | 279 | 0.0 | 13.0 | 0.00 | 0.00 | 0.00 | 14 | 1015.6 |
| 20260902171521 | 79 | 312 | 1.0 | 8.0 | 0.00 | 0.00 | 0.00 | 15 | 1015.4 |
| 20260902170017 | 78 | 293 | 0.0 | 1.0 | 0.00 | 0.00 | 0.00 | 16 | 1015.2 |
| 20260902164521 | 77 | 236 | 0.0 | 10.0 | 0.00 | 0.00 | 0.00 | 15 | 1015.2 |
| 20260902163009 | 75 | 263 | 0.0 | 0.0 | 0.00 | 0.00 | 0.00 | 17 | 1015.1 |
| 20260902161505 | 73 | 159 | 0.0 | 0.0 | 0.00 | 0.00 | 0.00 | 18 | 1015.0 |
| 20260902160000 | 69 | 128 | 0.0 | 7.0 | 0.00 | 0.00 | 0.00 | 23 | 1015.0 |
| 20260902154557 | 64 | 122 | 0.0 | 1.0 | 0.00 | 0.00 | 0.00 | 26 | 1015.0 |
| 20260902153104 | 60 | 122 | 0.0 | 3.0 | 0.00 | 0.00 | 0.00 | 31 | 1014.8 |
| 20260902151548 | 56 | 122 | 0.0 | 4.0 | 0.00 | 0.00 | 0.00 | 34 | 1014.9 |
| 20260902150044 | 54 | 123 | 0.0 | 0.0 | 0.00 | 0.00 | 0.00 | 38 | 1014.9 |
| 20260902144540 | 53 | 122 | 0.0 | 0.0 | 0.00 | 0.00 | 0.00 | 40 | 1014.9 |
| 20260902143038 | 52 | 122 | 0.0 | 0.0 | 0.00 | 0.00 | 0.00 | 41 | 1014.9 |
| 20260902141537 | 51 | 122 | 0.0 | 0.0 | 0.00 | 0.00 | 0.00 | 41 | 1014.9 |
| 20260902140036 | 50 | 122 | 0.0 | 0.0 | 0.00 | 0.00 | 0.00 | 43 | 1014.7 |
| 20260902134535 | 50 | 122 | 0.0 | 0.0 | 0.00 | 0.00 | 0.00 | 41 | 1014.3 |
| 20260902133034 | 49 | 122 | 0.0 | 0.0 | 0.00 | 0.00 | 0.00 | 40 | 1014.3 |
| 20260902131532 | 49 | 294 | 0.0 | 2.0 | 0.00 | 0.00 | 0.00 | 40 | 1014.2 |
| 20260902130031 | 49 | 296 | 0.0 | 0.0 | 0.00 | 0.00 | 0.00 | 40 | 1014.2 |
| 20260902124529 | 50 | 296 | 0.0 | 0.0 | 0.00 | 0.00 | 0.00 | 39 | 1014.3 |
| 20260902123030 | 50 | 296 | 0.0 | 0.0 | 0.00 | 0.00 | 0.00 | 39 | 1014.2 |
| 20260902121527 | 50 | 296 | 0.0 | 0.0 | 0.00 | 0.00 | 0.00 | 38 | 1014.2 |
| 20260902120026 | 50 | 296 | 0.0 | 0.0 | 0.00 | 0.00 | 0.00 | 38 | 1014.1 |
| 20260902114526 | 50 | 296 | 0.0 | 0.0 | 0.00 | 0.00 | 0.00 | 38 | 1014.1 |
| 20260902113025 | 50 | 296 | 0.0 | 0.0 | 0.00 | 0.00 | 0.00 | 38 | 1014.2 |
| 20260902111522 | 51 | 296 | 0.0 | 0.0 | 0.00 | 0.00 | 0.00 | 38 | 1014.2 |
| 20260902110035 | 50 | 296 | 0.0 | 0.0 | 0.00 | 0.00 | 0.00 | 38 | 1014.2 |
| 20260902104532 | 50 | 296 | 0.0 | 0.0 | 0.00 | 0.00 | 0.00 | 38 | 1014.2 |
| 20260902103036 | 51 | 296 | 0.0 | 0.0 | 0.00 | 0.00 | 0.00 | 38 | 1014.3 |
| 20260902101517 | 51 | 296 | 0.0 | 0.0 | 0.00 | 0.00 | 0.00 | 38 | 1014.5 |
| 20260902100016 | 51 | 296 | 0.0 | 0.0 | 0.00 | 0.00 | 0.00 | 38 | 1014.5 |
| 20260902094514 | 51 | 296 | 0.0 | 0.0 | 0.00 | 0.00 | 0.00 | 39 | 1014.5 |
| 20260902093012 | 51 | 296 | 0.0 | 0.0 | 0.00 | 0.00 | 0.00 | 39 | 1014.5 |
| 20260902091511 | 52 | 296 | 0.0 | 0.0 | 0.00 | 0.00 | 0.00 | 40 | 1014.5 |
| 20260902090018 | 52 | 296 | 0.0 | 0.0 | 0.00 | 0.00 | 0.00 | 40 | 1014.5 |
| 20260902084508 | 52 | 296 | 0.0 | 0.0 | 0.00 | 0.00 | 0.00 | 41 | 1014.5 |
| 20260902083005 | 52 | 296 | 0.0 | 0.0 | 0.00 | 0.00 | 0.00 | 44 | 1014.6 |
| 20260902081504 | 52 | 296 | 0.0 | 0.0 | 0.00 | 0.00 | 0.00 | 45 | 1014.6 |
| 20260902080004 | 52 | 296 | 0.0 | 0.0 | 0.00 | 0.00 | 0.00 | 47 | 1014.6 |
| 20260902074600 | 52 | 296 | 0.0 | 0.0 | 0.00 | 0.00 | 0.00 | 49 | 1014.6 |
| 20260902073059 | 52 | 296 | 0.0 | 0.0 | 0.00 | 0.00 | 0.00 | 51 | 1014.6 |
| 20260902071658 | 52 | 296 | 0.0 | 0.0 | 0.00 | 0.00 | 0.00 | 50 | 1014.6 |
| 20260902070053 | 53 | 296 | 0.0 | 0.0 | 0.00 | 0.00 | 0.00 | 48 | 1014.4 |
| 20260902064601 | 53 | 296 | 0.0 | 0.0 | 0.00 | 0.00 | 0.00 | 49 | 1014.3 |
| 20260902063104 | 53 | 296 | 0.0 | 0.0 | 0.00 | 0.00 | 0.00 | 52 | 1014.3 |